User: anonymous   Login
Location: Edoum�
(0.9447°N, 10.6482°E)
Time: 17:42:36
(UTC+00:00)
Language:

PEGASUS R/B - Orbit

View from above orbital plane
View from above orbital plane
View from above satellite
View from above satellite

Ground track
Ground track

The orbit data is extracted from the following two-line orbital elements,

1 28983U 06008D   20227.90402675  .00006090  22675-5  28962-3 0  9992
2 28983 105.5835 222.6011 1984442  57.8084 320.0150 11.41913560575332
Epoch (UTC): 14 August 2020 21:41:47
Eccentricity: 0.1984442
inclination: 105.5835°
perigee height: 299 km
apogee height: 3605 km
right ascension of ascending node: 222.6011°
argument of perigee: 57.8084°
revolutions per day: 11.41913560
mean anomaly at epoch: 320.0150°
orbit number at epoch: 57533

The dashed part of the orbit path shows where the satellite is in the earth's shadow,  

DLR